Weather History for KGRI - April, 2014

Change the Weather History Date:

Tuesday, April 1, 2014

  Actual Average Record
Temperature  
Mean Temperature 33 °F 45 °F  
Max Temperature 44 °F 58 °F 88 °F (2003)
Min Temperature 21 °F 33 °F 12 °F (1936)
Degree Days  
Heating Degree Days 32 20  
Month to date heating degree days 32 20  
Since 1 July heating degree days 5721 5577  
Cooling Degree Days 0 0  
Month to date cooling degree days 0 0  
Year to date cooling degree days 0 0  
Moisture  
Dew Point 18 °F    
Average Humidity 58    
Maximum Humidity 77    
Minimum Humidity 39    
Precipitation  
Precipitation 0.00 in 0.07 in 1.74 in (1977)
Month to date precipitation 0.00 0.07  
Year to date precipitation 0.84 3.08  
Snow  
Snow 0.00 in 0.10 in 2.10 in (1979)
Month to date snowfall 0.0 0.1  
Since 1 July snowfall 14.7 27.6  
Snow Depth 0.00 in    
Sea Level Pressure  
Sea Level Pressure 30.10 in    
Wind  
Wind Speed 10 mph (North)    
Max Wind Speed 22 mph    
Max Gust Speed 27 mph    
Visibility 10 miles    
Events      
T = Trace of Precipitation, MM = Missing Value Source: NWS Daily Summary

Daily Weather History Graph

Daily Weather History Graph

Search for Another Location

Airport or City:

Trip Planner

Search our weather history database for the weather conditions in past years. The results will help you decide how hot, cold, wet, or windy it might be!

Date:

Astronomy

Apr. 01, 2014 Rise Set
Actual Time 7:16 AM CDT 7:58 PM CDT
Civil Twilight 6:48 AM CDT 8:25 PM CDT
Nautical Twilight 6:16 AM CDT 8:58 PM CDT
Astronomical Twilight 5:42 AM CDT 9:32 PM CDT
Moon 8:19 AM CDT (4/1) 10:23 PM CDT (4/1)
Length of Visible Light 13h 37m
Length of Day
12h 41m
Waxing Crescent, 5% of the Moon is Illuminated
Apr 1
Waxing Crescent
Apr 7
First Quarter
Apr 15
Full
Apr 22
Last Quarter
Apr 29
New

Hourly Weather History & Observations

Time (CDT) Temp. Windchill Dew Point Humidity Pressure Visibility Wind Dir Wind Speed Gust Speed Precip Events Conditions
12:53 AM 28.9 °F 15.8 °F 19.0 °F 67% 30.05 in 10.0 mi NW 20.7 mph 28.8 mph N/A   Clear
1:53 AM 28.0 °F 17.0 °F 18.0 °F 66% 30.09 in 10.0 mi WNW 13.8 mph - N/A   Clear
2:53 AM 27.0 °F 14.3 °F 17.1 °F 66% 30.06 in 10.0 mi NNW 17.3 mph - N/A   Clear
3:53 AM 26.1 °F 16.8 °F 16.0 °F 66% 30.08 in 10.0 mi NW 9.2 mph - N/A   Clear
4:53 AM 24.1 °F 15.2 °F 16.0 °F 71% 30.09 in 10.0 mi WNW 8.1 mph - N/A   Clear
5:53 AM 23.0 °F 15.8 °F 15.1 °F 72% 30.10 in 10.0 mi WNW 5.8 mph - N/A   Clear
6:53 AM 21.9 °F 11.7 °F 15.1 °F 75% 30.14 in 10.0 mi West 9.2 mph - N/A   Clear
7:53 AM 25.0 °F 14.8 °F 16.0 °F 69% 30.17 in 10.0 mi WNW 10.4 mph - N/A   Partly Cloudy
8:53 AM 27.0 °F 14.3 °F 15.1 °F 61% 30.16 in 10.0 mi NW 17.3 mph - N/A   Mostly Cloudy
9:53 AM 28.0 °F 16.1 °F 15.1 °F 58% 30.12 in 10.0 mi North 16.1 mph - N/A   Overcast
10:53 AM 30.9 °F 22.8 °F 16.0 °F 54% 30.15 in 10.0 mi NW 9.2 mph - N/A   Mostly Cloudy
11:53 AM 35.1 °F 25.9 °F 18.0 °F 50% 30.14 in 10.0 mi North 13.8 mph - N/A   Partly Cloudy
12:53 PM 39.0 °F 34.8 °F 19.9 °F 46% 30.13 in 10.0 mi North 5.8 mph - N/A   Mostly Cloudy
1:53 PM 39.0 °F 34.0 °F 19.9 °F 46% 30.12 in 10.0 mi North 6.9 mph - N/A   Overcast
2:53 PM 41.0 °F 35.8 °F 19.9 °F 43% 30.09 in 10.0 mi NE 8.1 mph - N/A   Overcast
3:53 PM 42.1 °F 35.2 °F 19.9 °F 41% 30.06 in 10.0 mi ENE 12.7 mph - N/A   Overcast
4:53 PM 43.0 °F 36.8 °F 21.0 °F 42% 30.04 in 10.0 mi East 11.5 mph - N/A   Overcast
5:53 PM 43.0 °F 36.0 °F 19.9 °F 40% 30.04 in 10.0 mi East 13.8 mph - N/A   Overcast
6:53 PM 42.1 °F 35.7 °F 19.9 °F 41% 30.06 in 10.0 mi East 11.5 mph - N/A   Overcast
7:53 PM 39.9 °F 34.5 °F 19.9 °F 45% 30.07 in 10.0 mi ENE 8.1 mph - N/A   Mostly Cloudy
8:53 PM 35.1 °F 30.1 °F 19.9 °F 54% 30.09 in 10.0 mi NE 5.8 mph - N/A   Clear
9:53 PM 32.0 °F 25.6 °F 19.9 °F 61% 30.09 in 10.0 mi NE 6.9 mph - N/A   Clear
10:53 PM 33.1 °F 26.1 °F 19.9 °F 59% 30.09 in 10.0 mi ENE 8.1 mph - N/A   Clear
11:53 PM 32.0 °F 24.8 °F 19.9 °F 61% 30.09 in 10.0 mi NE 8.1 mph - N/A   Clear